Crockett, TX

9:04 PM CST on February 20, 2017 (GMT -0600)
Crockett

Weather History for KDKR - January, 2013

Change the Weather History Date:

Thursday, January 17, 2013

  Actual Average (KLFK) Record (KLFK)
Temperature  
Mean Temperature 44 °F -  
Max Temperature 60 °F 58 °F 81 °F (1952)
Min Temperature 28 °F 37 °F 18 °F (1965)
Degree Days  
Heating Degree Days 21    
Moisture  
Dew Point 31 °F    
Average Humidity 74    
Maximum Humidity 100    
Minimum Humidity 36    
Precipitation  
Precipitation 0.00 in - - ()
Sea Level Pressure  
Sea Level Pressure 30.39 in    
Wind  
Wind Speed 1 mph (NW)    
Max Wind Speed 9 mph    
Max Gust Speed 16 mph    
Visibility 10 miles    
Events      
Averages and records for this station are not official NWS values.
T = Trace of Precipitation, MM = Missing Value Source: NWS Daily Summary

Daily Weather History Graph

Daily Weather History Graph

Search for Another Location

Airport or City:

Trip Planner

Search our weather history database for the weather conditions in past years. The results will help you decide how hot, cold, wet, or windy it might be!

Date:

Astronomy

Jan. 17, 2013 Rise Set
Actual Time 7:20 AM CST 5:43 PM CST
Civil Twilight 6:54 AM CST 6:09 PM CST
Nautical Twilight 6:24 AM CST 6:39 PM CST
Astronomical Twilight 5:55 AM CST 7:08 PM CST
Moon 10:56 AM CST (1/17) No Moon Set
Length of Visible Light 11h 15m
Length of Day
10h 23m
Waxing Crescent, 38% of the Moon is Illuminated
Jan 17
Waxing Crescent
Jan 18
First Quarter
Jan 26
Full
Feb 3
Last Quarter
Feb 10
New

Hourly Weather History & Observations

Time (CST) Temp. Windchill Dew Point Humidity Pressure Visibility Wind Dir Wind Speed Gust Speed Precip Events Conditions
12:15 AM 28.4 °F - 28.4 °F 100% 30.29 in 10.0 mi Calm Calm - N/A   Clear
12:35 AM 28.4 °F - 28.4 °F 100% 30.29 in 10.0 mi Calm Calm - N/A   Clear
12:55 AM 28.4 °F - 26.6 °F 93% 30.30 in 10.0 mi Calm Calm - N/A   Clear
1:15 AM 28.4 °F - 26.6 °F 93% 30.30 in 10.0 mi Calm Calm - N/A   Clear
1:35 AM 28.4 °F - 26.6 °F 93% 30.31 in 10.0 mi Calm Calm - N/A   Clear
1:55 AM 28.4 °F - 26.6 °F 93% 30.32 in 10.0 mi Calm Calm - N/A   Clear
2:15 AM 28.4 °F - 24.8 °F 86% 30.32 in 10.0 mi Calm Calm - N/A   Clear
2:35 AM 28.4 °F - 26.6 °F 93% 30.31 in 10.0 mi Calm Calm - N/A   Clear
2:55 AM 28.4 °F - 26.6 °F 93% 30.32 in 10.0 mi Calm Calm - N/A   Clear
3:35 AM 28.4 °F - 26.6 °F 93% 30.32 in 10.0 mi Calm Calm - N/A   Clear
3:55 AM 28.4 °F - 26.6 °F 93% 30.33 in 10.0 mi Calm Calm - N/A   Clear
4:15 AM 28.4 °F - 26.6 °F 93% 30.33 in 10.0 mi Calm Calm - N/A   Clear
4:35 AM 28.4 °F - 26.6 °F 93% 30.33 in 10.0 mi Calm Calm - N/A   Clear
4:55 AM 28.4 °F - 26.6 °F 93% 30.33 in 10.0 mi Calm Calm - N/A   Clear
5:15 AM 28.4 °F - 26.6 °F 93% 30.33 in 10.0 mi Calm Calm - N/A   Clear
5:35 AM 28.4 °F - 26.6 °F 93% 30.34 in 10.0 mi Calm Calm - N/A   Clear
5:55 AM 28.4 °F - 26.6 °F 93% 30.34 in 10.0 mi Calm Calm - N/A   Clear
6:15 AM 28.4 °F - 26.6 °F 93% 30.35 in 10.0 mi Calm Calm - N/A   Clear
6:35 AM 28.4 °F - 26.6 °F 93% 30.35 in 10.0 mi Calm Calm - N/A   Clear
6:55 AM 28.4 °F - 26.6 °F 93% 30.36 in 10.0 mi Calm Calm - N/A   Clear
7:15 AM 28.4 °F - 26.6 °F 93% 30.36 in 10.0 mi Calm Calm - N/A   Clear
7:35 AM 28.4 °F - 26.6 °F 93% 30.38 in 10.0 mi Calm Calm - N/A   Clear
7:55 AM 28.4 °F - 26.6 °F 93% 30.38 in 9.0 mi Calm Calm - N/A   Clear
8:15 AM 32.0 °F - 28.4 °F 87% 30.39 in 9.0 mi Calm Calm - N/A   Clear
8:35 AM 32.0 °F - 30.2 °F 93% 30.40 in 10.0 mi Calm Calm - N/A   Clear
8:55 AM 33.8 °F - 30.2 °F 87% 30.42 in 10.0 mi Calm Calm - N/A   Clear
9:15 AM 37.4 °F - 32.0 °F 81% 30.43 in 10.0 mi Calm Calm - N/A   Clear
9:35 AM 39.2 °F - 32.0 °F 75% 30.44 in 9.0 mi Calm Calm - N/A   Clear
9:55 AM 42.8 °F - 30.2 °F 61% 30.45 in 10.0 mi Calm Calm - N/A   Clear
10:15 AM 44.6 °F 42.2 °F 30.2 °F 57% 30.45 in 10.0 mi West 4.6 mph - N/A   Clear
10:35 AM 44.6 °F - 32.0 °F 61% 30.46 in 10.0 mi Calm Calm - N/A   Clear
10:55 AM 46.4 °F 45.2 °F 32.0 °F 57% 30.45 in 10.0 mi WNW 3.5 mph - N/A   Clear
11:15 AM 50.0 °F - 32.0 °F 50% 30.45 in 10.0 mi NNW 4.6 mph - N/A   Clear
11:35 AM 51.8 °F - 32.0 °F 47% 30.44 in 10.0 mi Calm Calm - N/A   Clear
11:55 AM 53.6 °F - 33.8 °F 47% 30.43 in 10.0 mi NW 4.6 mph - N/A   Clear
12:15 PM 55.4 °F - 33.8 °F 44% 30.42 in 10.0 mi North 6.9 mph - N/A   Clear
12:35 PM 55.4 °F - 33.8 °F 44% 30.41 in 10.0 mi NNW 9.2 mph 16.1 mph N/A   Clear
12:55 PM 55.4 °F - 33.8 °F 44% 30.40 in 10.0 mi Calm Calm - N/A   Clear
1:15 PM 57.2 °F - 33.8 °F 41% 30.40 in 10.0 mi North 4.6 mph - N/A   Clear
1:35 PM 57.2 °F - 35.6 °F 44% 30.39 in 10.0 mi North 8.1 mph - N/A   Clear
1:55 PM 59.0 °F - 35.6 °F 42% 30.39 in 10.0 mi WNW 6.9 mph - N/A   Clear
2:15 PM 59.0 °F - 35.6 °F 42% 30.38 in 10.0 mi NW 4.6 mph - N/A   Clear
2:35 PM 60.8 °F - 35.6 °F 39% 30.38 in 10.0 mi NNW 4.6 mph - N/A   Clear
2:55 PM 60.8 °F - 35.6 °F 39% 30.38 in 10.0 mi NNW 8.1 mph - N/A   Clear
3:15 PM 60.8 °F - 35.6 °F 39% 30.38 in 10.0 mi NW 9.2 mph - N/A   Clear
3:55 PM 60.8 °F - 35.6 °F 39% 30.39 in 10.0 mi NW 6.9 mph - N/A   Clear
4:55 PM 60.8 °F - 33.8 °F 36% 30.41 in 8.0 mi Calm Calm - N/A   Clear
5:35 PM 57.2 °F - 33.8 °F 41% 30.41 in 10.0 mi Calm Calm - N/A   Clear
7:15 PM 44.6 °F - 35.6 °F 71% 30.45 in 10.0 mi Calm Calm - N/A   Clear
7:55 PM 42.8 °F - 35.6 °F 76% 30.46 in 10.0 mi Calm Calm - N/A   Clear
8:15 PM 39.2 °F - 33.8 °F 81% 30.47 in 10.0 mi Calm Calm - N/A   Clear
8:55 PM 39.2 °F - 33.8 °F 81% 30.48 in 10.0 mi Calm Calm - N/A   Clear
9:15 PM 37.4 °F - 33.8 °F 87% 30.48 in 10.0 mi Calm Calm - N/A   Clear
9:35 PM 37.4 °F - 33.8 °F 87% 30.49 in 10.0 mi Calm Calm - N/A   Clear
9:55 PM 37.4 °F - 33.8 °F 87% 30.50 in 10.0 mi Calm Calm - N/A   Clear
11:15 PM 37.4 °F - 33.8 °F 87% 30.51 in 10.0 mi Calm Calm - N/A   Clear
11:35 PM 35.6 °F - 33.8 °F 93% 30.51 in 10.0 mi Calm Calm - N/A   Clear
11:55 PM 37.4 °F - 33.8 °F 87% 30.51 in 10.0 mi Calm Calm - N/A   Clear